Regional Weather Roundup
Issued by NWS

Home | Current Version | Previous Version | Graphics & Text | Print | Product List | Glossary On
Versions: 1 2 3 4 5 6 7 8 9 10 11 12 13 14 15 16 17 18 19 20 21 22 23 24 25 26 27 28 29 30 31 32 33 34 35 36 37 38 39 40 41 42 43 44 45 46 47 48 49 50
458
ASUS43 KMPX 250410
RWRMN
WEATHER ROUNDUP FOR MINNESOTA
NATIONAL WEATHER SERVICE TWIN CITIES/CHANHASSEN MN
1000 PM CST FRI FEB 24 2017


NOTE: "FAIR" INDICATES FEW OR NO CLOUDS BELOW 12,000 FEET WITH NO
SIGNIFICANT WEATHER AND/OR OBSTRUCTIONS TO VISIBILITY. N/A MEANS
CURRENT SKY AND/OR WEATHER CONDITIONS ARE NOT AVAILABLE.

MNZ060>063-068>070-250500-
   Twin Cities Metro

CITY           SKY/WX    TMP DP  RH WIND       PRES   REMARKS
TWIN CITIES    PTCLDY    22   9  57 N14       29.89S WCI   9
ST PAUL        PTCLDY    23  10  57 N13       29.90S WCI  11
CRYSTAL        CLOUDY    21   8  57 NW12      29.89S WCI   9
BLAINE         CLOUDY    23  12  63 NW14      29.89S WCI  11
LAKEVILLE      PTCLDY    19  10  68 NW15G23   29.87S WCI   5
EDEN PRAIRIE   CLOUDY    22   9  57 N15G24    29.88S WCI   9
SOUTH ST PAUL  CLOUDY    24  10  56 N13G21    29.88S WCI  12
LAKE ELMO      FAIR      23  12  63 N14G21    29.87S WCI  11
$$
MNZ001>005-007-008-013>017-022>024-027-028-250500-
   Northwest Minnesota

CITY           SKY/WX    TMP DP  RH WIND       PRES   REMARKS
BEMIDJI        CLEAR     11   4  72 NW10G16   29.99R WCI  -2
HALLOCK        CLEAR     10   7  85 N3        30.10S
ROSEAU         CLEAR      9   3  78 NW7       30.05S WCI  -3
WARROAD        CLEAR      9   1  72 NW8       30.04S WCI  -4
THIEF RVR FALL CLEAR     12   8  84 NW12      30.08S WCI  -2
CROOKSTON      CLEAR     16  10  79 N10       30.11S WCI   3
FOSSTON        CLEAR     10   5  79 NW13      30.05S WCI  -5
DETROIT LAKES  CLEAR     16  10  79 N14G23    30.03S WCI   1
MOORHEAD       CLEAR     18   9  68 N13       30.10S WCI   4
PARK RAPIDS    CLEAR     14   4  64 NW12      29.97R WCI   0
MAHNOMEN       FAIR      14   7  74 N13       30.04S WCI  -1
$$
MNZ006-009>011-018-025>026-250500-
   North Central Minnesota

CITY           SKY/WX    TMP DP  RH WIND       PRES   REMARKS
BAUDETTE       CLEAR      8   1  73 N6        30.00S WCI  -2
FLAG ISLAND    CLEAR      9   1  72 NW9       30.02S WCI  -5
INTL FALLS     CLEAR      9   1  70 N12       29.95F WCI  -6
WASKISH        CLEAR     10   5  79 NW6       30.00S WCI   1
BIG FORK       CLEAR     10   1  67 NW3       29.94S
LONGVILLE      CLEAR     12   5  73 N7        29.95S WCI   2
GRAND RAPIDS   CLOUDY    12   3  67 N14       29.93S WCI  -3
CRANE LAKE     CLEAR     10   1  67 N6        29.94S WCI   1
ORR            CLOUDY    12   3  67 CALM      29.88S
COOK           CLOUDY    12   3  67 N7        29.90S WCI   2
WALKER         FAIR      13   4  70 NW10      29.97S WCI  -1
$$
MNZ012-019>021-037-250500-
   Northeast Minnesota

CITY           SKY/WX    TMP DP  RH WIND       PRES   REMARKS
DULUTH         CLOUDY    15   6  67 N12       29.84S WCI   2
ELY            CLOUDY    12   1  62 N7        29.85F WCI   2
HIBBING        CLOUDY    14   4  64 NW15      29.88S WCI  -1
EVELETH        CLOUDY    15  -2  46 N9        29.88S WCI   3
DULUTH HARBOR  CLOUDY    21   9  58 N16G23    29.91S WCI   7
TWO HARBORS    PTCLDY    19   9  63 N3        29.84S
SILVER BAY     CLOUDY    18   5  57 NW3       29.82F
GRAND MARAIS     N/A     18   3  52 VRB5      29.84F WCI  11
G MARAIS ARPRT CLOUDY    10   0  61 N10       29.75F WCI  -3
$$
MNZ029>031-032-039>041-046>048-054>057-064-250500-
   West Central Minnesota

CITY           SKY/WX    TMP DP  RH WIND       PRES   REMARKS
FERGUS FALLS   CLEAR     16   9  73 N18G25    30.10R WCI  -1
WHEATON        CLEAR     18   9  68 NW16G22   30.10R WCI   3
MORRIS         CLEAR     19  12  73 NW22G30   30.02S WCI   3
ALEXANDRIA     CLEAR     16  10  77 NW13G24   29.98S WCI   2
ELBOW LAKE     FAIR      17  10  74 NW18G26   30.04S WCI   0
WADENA         CLEAR     16   9  73 NW13      29.97F WCI   2
GLENWOOD       CLEAR     18  12  79 NW18G24   29.97F WCI   2
APPLETON       CLEAR     21  12  68 NW17G29   30.04S WCI   7
BENSON         CLEAR     19  10  68 N23G29    30.02F WCI   2
ORTONVILLE     CLEAR     19   9  63 N20G26    30.06S WCI   4
MADISON        CLEAR     21  14  73 N25G31    30.06S WCI   4
WILLMAR        FAIR      21  16  79 NW21      29.98S WCI   6
$$
MNZ033>034-036-042>043-049>051-058-059-250500-
   Central Minnesota

CITY           SKY/WX    TMP DP  RH WIND       PRES   REMARKS
ST CLOUD       CLEAR     21   8  57 N15       29.92S WCI   8
SAUK CENTRE    FAIR      18  10  70 NW17      29.96R WCI   3
PAYNESVILLE    CLEAR     20  10  64 N16G22    29.95S WCI   6
AITKIN         CLEAR     18   3  53 NW10G22   29.92R WCI   6
PINE RIVER     CLEAR     16   7  67 NW15      29.98S WCI   1
BRAINERD       PTCLDY    17   7  64 N13       29.94R WCI   4
STAPLES        CLEAR     16   7  67 NW14G21   29.96S WCI   1
LONG PRAIRIE   FAIR      19   9  63 W14G21    29.95S WCI   6
LITTLE FALLS   CLEAR     19   9  63 NW8G20    29.95S WCI   9
LITCHFIELD     CLOUDY    21  10  63 N20G28    29.94R WCI   6
BUFFALO        CLOUDY    22   8  56 NW13G23   29.93S WCI   9
MAPLE LAKE     CLOUDY    22  11  63 N14       29.93S WCI   9
HUTCHINSON     CLEAR     23  10  58 NW20G30   29.93S WCI   8
$$
MNZ037-044-045-052-053-250500-
   East Central Minnesota

CITY           SKY/WX    TMP DP  RH WIND       PRES   REMARKS
PRINCETON      PTCLDY    21   9  58 NW15G22   29.91S WCI   8
MORA           PTCLDY    19   9  63 N15G21    29.91S WCI   5
CAMBRIDGE      PTCLDY    21  10  63 NW8G17    29.89R WCI  12
RUSH CITY      MOCLDY    19   9  63 N14G21    29.90R WCI   6
MOOSE LAKE     CLOUDY    18   9  68 N12G20    29.88R WCI   5
HINCKLEY       FAIR      19  10  68 N10       29.89R WCI   8
CLOQUET        CLOUDY    16   5  62 NW13      29.86S WCI   2
MCGREGOR       CLOUDY    18   9  68 NW15      29.91S WCI   3
$$
MNZ071>073-080-081-089-090-097-098-250500-
   Southwest Minnesota

CITY           SKY/WX    TMP DP  RH WIND       PRES   REMARKS
MONTEVIDEO     CLEAR     19  14  79 N21       30.03F WCI   3
GRANITE FALLS  CLEAR     22  16  77 NW20G31   30.03R WCI   7
CANBY          CLEAR     21  15  76 NW17G24   30.05S WCI   7
MARSHALL       CLOUDY    20  13  74 N24G30    30.01R WCI   3
REDWOOD FALLS  CLOUDY    21  13  71 NW17G29   29.97R WCI   7
OLIVIA         CLEAR     21  16  79 NW21G26   29.97R WCI   6
PIPESTONE      CLOUDY    19  10  68 N16G28    30.00R WCI   5
WINDOM         CLOUDY    19  14  79 NW25G35   29.94R WCI   2
WORTHINGTON    CLOUDY    18  12  77 NW23      29.97R WCI   0
JACKSON        CLOUDY    21  14  73 NW26G38   29.93R WCI   4
TRACY          CLEAR     21  16  80 NW21G29   29.99S WCI   5
SLAYTON        PTCLDY    19  13  78 NW20G37   29.98R WCI   2
$$
MNZ065>067-074>077-082>085-091>093-250500-
   South Central Minnesota

CITY           SKY/WX    TMP DP  RH WIND       PRES   REMARKS
MANKATO          N/A     20  12  71 N15       29.90  WCI   6
NEW ULM        CLOUDY    21  12  68 N20G29    29.92S WCI   6
ST JAMES       CLOUDY    21  16  79 NW23      29.94R WCI   5
FAIRMONT       CLOUDY    20  15  81 NW23G31   29.91R WCI   3
GLENCOE        CLOUDY    23  14  67 NW9       29.92R WCI  13
FARIBAULT      CLOUDY    21  10  63 NW14      29.88R WCI   8
OWATONNA       CLOUDY    19  10  68 NW16      29.85S WCI   5
WASECA         CLOUDY    19  12  73 N17       29.89R WCI   4
ALBERT LEA     PTCLDY    19  12  73 N15G21    29.84S WCI   5
$$
MNZ078>079-086>088-094>096-250500-
   Southeast Minnesota

CITY           SKY/WX    TMP DP  RH WIND       PRES   REMARKS
ROCHESTER      CLOUDY    19  15  84 N17       29.79F FOG     WCI   4
RED WING       CLOUDY    21   9  58 N10       29.84S WCI  10
STANTON        CLOUDY    22  12  64 N15       29.86R WCI   9
WINONA         CLOUDY    21  18  86 N12G20    29.83R FOG     WCI   9
AUSTIN         CLOUDY    19  12  73 N17G24    29.82R WCI   4
PRESTON        CLOUDY    18  14  86 N16G22    29.78S WCI   3
$$
ABBREVIATIONS USED IN REMARKS
   TC - TEMPERATURES IN CELSIUS
  WCI - WIND CHILL INDEX
   HX - HEAT INDEX
  VSB - VISIBILITY
$$




USA.gov is the U.S. government's official web portal to all federal, state and local government web resources and services.